Location: *
(51.0333°S, 178.4667°E)
Time: 22:25:15
(UTC+00:00)

Landsat 4 - Pass Details

Date: 15 November 2019
Orbit: 506 x 524 km, 98.2° (Epoch: 10 December)

Event Time Altitude Azimuth Distance (km) Brightness Sun altitude
Exits shadow 09:53:33 27° 356° (N) 1,053 4.8 -15.9°
Maximum altitude 09:55:31 62° 282° (WNW) 605 4.0 -16.1°
Drops below altitude 10° 09:59:24 10° 200° (SSW) 1,808 7.8 -16.3°
Sets 10:01:33 0° 197° (SSW) 2,708 9.0 -16.5°
